DELTA 1 DEB, 10644

Orbit data source: Space-Track

DELTA 1 DEB, 10644 is space debris in SSO originally from a launch on Thu, 29 Jul 1976 UTC launched from the Air Force Western Test Range (AFWTR). Debris objects in space refer to the collection of defunct objects orbiting the Earth. Examples of debris include non-operational satellites, rocket bodies, and fragments generated from explosions, collisions, or faulty payload assembly.

Loading next visibility...
Identifier
10644, 1976-077E
Orbit
SSO
Country
Flag of USUS
Related business
Manufacturer
Unknown
Mission
Spacecraft
Bus & Motor
Unknown
Mass
Unknown
Launch date (UTC)
1976-07-29 (50 years ago)
Launch vehicle
Unknown
Launch site
Air Force Western Test Range (AFWTR)
Object type
Payload
Rocket body
Debris
Shape & HBR
Unknown shape, 0.1 m
Radar Cross Section
Medium (>0.1 m² and <1 m²)

Expand to show TLE details & history
Last TLE update: 6 days ago

TLE from 6 days ago
0 DELTA 1 DEB
1 10644U 76077E   26165.86710168  .00000107  00000-0  82975-3 0  9991
2 10644 101.3748 132.3954 0107647  22.9134  34.5894 12.61831468294440
Epoch: 2026-06-14T20:48Z
TLE epoch observation values (Epoch: 2026-06-14T20:48:37.585Z)
Latitude
56.53395°
Longitude
-100.55006°
Altitude
1,355.878 km
Speed
7.217 km/s
True Right ascension
07h 39m 04s
True Declination
56° 23' 16"
Sunlit
Object was in daylight at epoch
Visualization orbit readout
Latitude
Unknown
Longitude
Unknown
Altitude
Unknown
Speed
Unknown
Apparent Right ascension
Unknown
Apparent Declination
Unknown
Sunlit
N/A
Visualization observer readout
Local Sidereal Time
03:10:39
Azimuth
Unknown
Elevation
Unknown
Doppler factor
Unknown
Orbital elements
Apogee altitude
1,496.771 km
Perigee altitude
1,329.035 km
Semi-major axis
7,791.04 km
Eccentricity
0.01076
Inclination
101.3748°
RAAN
132.3954°
Arg. of periapsis
22.9134°
True anomaly
35.29749°
Mean anomaly
34.5894°
Eccentric anomaly
34.94266°
Mean motion
3.15609 °/min
Orbital period
114.07 mins
BSTAR
0.00082975
Loading maneuver chart data...
Computing Atmospheric mass density...
Loading historical data...
Loading historical data...
Loading historical data...
Loading historical data...
Loading historical data...
Loading historical data...
Loading historical data...

Documentation

Showing up to 5 results
|